Location: La Rougeraie
(47.7203°N, 1.1477°W)
Time: 13:35:21
(UTC+00:00)

Daily predictions for brighter satellites

Satellite Brightness Start Highest point End
(mag) Time Altitude Azimuth Time Altitude Azimuth Time Altitude Azimuth
YAOGAN 1 3.5 18:55:32 10° S 18:59:46 53° W 19:04:02 10° NNW
STARLINK-1238 2.8 18:56:56 10° SW 19:00:04 75° SSE 19:03:13 10° ENE
STARLINK-1269 3.8 18:56:32 10° SW 19:00:29 50° SE 19:04:26 10° ENE
STARLINK-1094 3.6 18:56:37 10° WNW 19:00:41 88° SW 19:04:44 10° ESE
STARLINK-1205 2.8 18:57:52 10° SW 19:00:58 76° SSE 19:04:06 10° ENE
Cosmos 371 Rocket 4.1 18:56:17 10° NNW 19:01:01 55° WSW 19:05:42 10° S
Cosmos 2297 3.9 18:55:26 10° NNW 19:01:02 56° ENE 19:06:36 10° SE
STARLINK-1204 2.8 18:58:20 10° SW 19:01:27 76° SSE 19:04:34 10° ENE
Cosmos 1455 Rocket 3.3 18:57:44 10° SSE 19:01:52 46° E 19:06:04 10° NNE
STARLINK-1111 4.3 18:58:36 10° WNW 19:02:36 46° NNE 19:06:37 10° E
STARLINK-1200 3.8 19:01:19 10° SW 19:05:17 54° SE 19:09:17 10° ENE
STARLINK-1117 3.6 19:01:28 10° WNW 19:05:32 83° SSW 19:09:35 10° ESE
S3M 4.1 18:59:26 10° S 19:05:46 75° E 19:12:11 10° NNE
Cosmos 2237 Rocket 2.3 19:00:27 10° SSW 19:06:05 85° WNW 19:11:46 10° NNE
Cosmos 1386 Rocket 4.4 19:00:08 10° N 19:06:14 78° E 19:12:13 10° SSE
STARLINK-1073 4.3 19:03:35 10° WNW 19:07:37 47° NNE 19:11:38 10° E
Cosmos 1892 Rocket 3.6 19:03:54 10° N 19:08:25 87° E 19:12:54 10° S
CZ-2C R/B 4.1 19:05:59 10° NE 19:08:57 15° E 19:11:55 10° ESE
Cosmos 1626 Rocket 4.3 19:05:05 10° N 19:09:05 33° ENE 19:13:02 10° SE
NOSS 2-1 (C) 4.3 19:05:56 10° WSW 19:09:12 44° NW 19:12:50 10° NNE
STARLINK-1078 3.6 19:05:55 10° WNW 19:09:58 79° SSW 19:14:01 10° SE
STARLINK-1192 3.7 19:06:01 10° SW 19:10:01 58° SE 19:14:03 10° ENE
Cosmos 1805 3.3 19:06:07 10° S 19:10:02 89° WNW 19:13:58 10° N
BREEZE-M DEB (TANK) 4.4 18:57:14 10° WNW 19:11:30 52° SW 19:15:09 10° SE
Cosmos 2278 Rocket 3.6 19:06:39 10° NW 19:11:59 42° WSW 19:17:17 10° S
STARLINK-1121 4.2 19:08:34 10° WNW 19:12:36 49° NNE 19:16:38 10° E
Meteor 2-5 Rocket 3.9 19:07:04 10° NNW 19:12:45 79° W 19:18:18 10° S
NOSS 2-1 (D) 4.4 19:10:11 10° WSW 19:13:25 40° NW 19:17:02 10° NNE
STARLINK-1108 3.7 19:10:47 10° WNW 19:14:49 74° SSW 19:18:53 10° SE
STARLINK-1244 3.6 19:10:54 10° SW 19:14:56 63° SE 19:18:59 10° ENE
ARGOS 3.3 19:11:04 10° SE 19:16:19 55° ENE 19:21:34 10° N
Cosmos 1602 Rocket 4.4 19:13:04 10° N 19:17:05 31° ENE 19:21:04 10° SE
STARLINK-1106 4.2 19:13:31 10° WNW 19:17:35 50° NNE 19:21:25 11° E
STARLINK-1071 3.8 19:15:26 10° WNW 19:19:29 69° SSW 19:23:26 10° SE
STARLINK-1138 3.6 19:15:28 10° SW 19:19:32 67° SSE 19:23:36 10° ENE
Okean 1-7 Rocket 3.7 19:16:01 10° N 19:20:27 82° W 19:24:50 10° S
STARLINK-1234 3.2 19:17:34 10° WSW 19:20:31 62° NNW 19:23:28 10° ENE
Cosmos 494 Rocket 4.0 19:16:56 10° SSW 19:22:05 86° ESE 19:27:19 10° NNE
STARLINK-1112 4.1 19:18:32 10° WNW 19:22:37 52° NNE 19:26:14 13° E
USA 186 1.9 19:20:06 10° SSE 19:23:29 59° ENE 19:26:49 10° N
STARLINK-1110 3.8 19:19:54 10° WNW 19:23:56 65° SSW 19:27:43 11° SE
Meteor 1-24 Rocket 3.7 19:18:27 10° NNW 19:24:01 85° W 19:29:23 10° S
STARLINK-1143 3.5 19:20:21 10° SW 19:24:25 72° SSE 19:28:30 10° ENE
STARLINK-1124 3.9 19:21:17 10° WNW 19:25:23 64° SSW 19:29:13 12° SE
STARLINK-1128 4.0 19:23:31 10° WNW 19:27:36 54° NNE 19:31:01 14° E
CZ-2C R/B 2.9 19:23:41 10° SSE 19:28:41 71° ENE 19:33:31 10° N
Cosmos 1544 Rocket 3.5 19:25:04 10° S 19:29:25 68° E 19:33:51 10° NNE
Cosmos 1331 Rocket 4.4 19:24:23 10° NNW 19:29:30 67° WSW 19:34:36 10° S
Cosmos 1470 3.1 19:27:49 10° SSE 19:31:28 42° E 19:35:10 10° NNE
USA 81 4.5 19:27:16 10° N 19:32:31 67° W 19:37:44 10° S
STARLINK-1113 4.0 19:28:30 10° WNW 19:32:36 57° NNE 19:35:47 16° E
STARLINK-1241 3.5 19:28:41 10° WSW 19:32:43 80° SSE 19:36:48 10° ENE
STARLINK-1122 4.0 19:29:22 10° WNW 19:33:21 56° SW 19:36:48 13° SE
Cosmos 883 Rocket 4.4 19:28:38 10° S 19:34:48 75° E 19:41:05 10° NNE
CZ-4 R/B 4.3 19:32:35 10° SW 19:35:06 17° W 19:37:37 10° NW
SPOT 3 Rocket 3.8 19:30:29 10° SE 19:35:29 49° ENE 19:40:31 10° N
MOS 1 4.3 19:31:44 10° SSE 19:37:22 85° ENE 19:43:04 10° NNW
STARLINK-1119 3.9 19:33:28 10° WNW 19:37:35 59° NNE 19:40:34 18° E
STARLINK-1239 3.5 19:33:36 10° WSW 19:37:39 85° SSE 19:41:43 10° ENE
STARLINK-1126 4.1 19:34:21 10° WNW 19:38:19 52° SW 19:41:36 14° SE
Cosmos 2369 Rocket 2.9 19:33:59 10° NNW 19:39:19 39° NE 19:43:15 17° ESE
SJ-6B 2.8 19:37:30 10° SSE 19:41:34 75° ENE 19:45:42 10° N
STARLINK-1240 3.5 19:38:19 10° WSW 19:42:22 90° NE 19:46:27 10° ENE
Cosmos 1733 3.9 19:38:40 10° SSW 19:42:23 57° WNW 19:46:07 10° N
STARLINK-1114 3.8 19:38:30 10° WNW 19:42:37 62° NNE 19:45:24 20° E
STARLINK-1082 4.2 19:38:52 10° WNW 19:42:47 49° SW 19:45:55 15° SE
Cosmos 1726 3.5 19:42:57 19° E 19:43:21 20° E 19:46:07 10° NE
Ariane Rocket 3.5 19:39:37 10° S 19:44:39 64° WSW 19:49:42 10° NNW
Aureole 2 Rocket 3.6 19:41:35 10° N 19:44:39 27° ENE 19:45:57 22° E
Cosmos 1758 3.4 19:41:25 10° S 19:45:25 57° E 19:49:28 10° NNE
Cosmos 1758 Rocket 4.5 19:42:05 10° N 19:45:55 29° ENE 19:47:54 20° ESE
STARLINK-1216 3.6 19:43:03 10° WSW 19:47:07 85° NNW 19:51:02 11° ENE
STARLINK-1130 (DARKSAT) 3.8 19:43:27 10° WNW 19:47:36 65° NNE 19:50:10 22° E
STARLINK-1100 4.4 19:43:48 10° WNW 19:47:42 45° SW 19:50:39 16° SSE
CZ-2C R/B 3.9 19:44:48 10° NNE 19:49:28 51° E 19:54:02 10° S
STARLINK-1209 3.9 19:47:44 10° W 19:50:32 40° NNW 19:52:50 14° NE
STARLINK-1237 3.6 19:47:50 10° WSW 19:51:54 81° NNW 19:55:38 12° ENE
STARLINK-1083 4.5 19:48:34 10° WNW 19:52:26 42° SW 19:55:12 17° SSE
STARLINK-1084 3.7 19:48:25 10° WNW 19:52:34 69° NNE 19:54:56 24° ESE
STARLINK-1228 3.9 19:49:57 10° W 19:52:42 39° NNW 19:54:50 15° NE
Cosmos 2184 Rocket 4.3 19:49:01 10° N 19:55:06 46° ENE 19:59:37 17° SE
IRIDIUM 106 4.4 19:50:18 10° N 19:55:26 55° E 20:00:12 12° SSE
STARLINK-1202 3.7 19:52:34 10° WSW 19:56:38 77° NNW 20:00:12 13° ENE
SL-14 R/B 4.2 19:53:06 10° NNW 19:57:04 52° W 20:00:58 10° S
STARLINK-1098 3.7 19:53:25 10° WNW 19:57:34 72° NNE 19:59:43 27° ESE
Cosmos 1943 Rocket 2.2 19:55:23 10° NNW 20:00:54 67° ENE 20:04:35 22° SE
Meteor 1-21 Rocket 4.2 19:56:07 10° N 20:01:41 64° ENE 20:06:08 16° SSE
STARLINK-1123 3.6 19:58:23 10° WNW 20:02:33 76° NNE 20:04:30 30° ESE
Cosmos 1943 4.1 20:01:04 20° SE 20:03:25 26° ESE 20:08:04 10° NE
STARLINK-1246 3.8 19:59:47 10° WSW 20:03:52 71° NNW 20:07:12 15° ENE
STARLINK-67 4.2 20:01:43 10° WNW 20:04:01 27° N 20:05:15 18° NE
SL-8 R/B 3.7 20:00:08 10° W 20:04:56 84° N 20:07:34 27° E
Meteor 2-10 4.4 20:00:51 10° SSE 20:05:51 43° E 20:11:04 10° NNE
STARLINK-1201 4.0 20:03:26 10° W 20:06:35 45° NNW 20:08:42 18° NE
STARLINK-1097 3.6 20:03:21 10° WNW 20:07:31 81° NNE 20:09:16 34° ESE
Resurs 1-3 3.5 20:05:32 20° SSE 20:08:35 74° ENE 20:12:59 10° N
Cosmos 1626 3.6 20:05:11 10° NNW 20:08:38 37° W 20:12:03 10° SSW
ATLAS 2AS CENTAUR R/B 3.7 20:02:39 10° NW 20:09:53 40° NNE 20:14:22 20° E
STARLINK-1224 3.9 20:06:56 10° WSW 20:10:59 66° NNW 20:13:58 18° ENE
STARLINK-1203 3.9 20:08:21 10° WSW 20:12:17 61° NNW 20:15:06 18° ENE
STARLINK-1099 3.5 20:08:21 10° WNW 20:12:31 85° NNE 20:14:04 37° ESE
Cosmos 2315 Rocket 4.3 20:07:18 10° SSW 20:13:36 73° W 20:20:00 10° N
H-2A R/B 3.2 20:10:18 10° S 20:15:19 43° W 20:20:16 10° NNW
STARLINK-1225 4.0 20:11:33 10° WSW 20:15:35 63° NNW 20:18:23 19° ENE
Cosmos 2154 Rocket 4.4 20:10:07 10° N 20:16:11 43° ENE 20:18:59 28° SE
USA 234 3.2 20:10:15 10° ENE 20:16:48 71° SE 20:23:19 10° SW
Aureole 3 3.5 20:13:15 10° S 20:17:16 83° E 20:22:31 10° N
SL-08 RB Rocket 4.2 20:12:58 10° S 20:17:24 59° W 20:21:56 10° NNW
STARLINK-1104 3.5 20:13:20 10° WNW 20:17:29 90° NNE 20:18:51 42° ESE
Resurs 01 Rocket 1.6 20:16:28 31° SE 20:18:29 66° ENE 20:22:53 10° N
Meteor 2-15 Rocket 4.4 20:12:33 10° S 20:18:39 89° WNW 20:24:45 10° N
DMSP B5D2-2 4.0 20:13:49 10° NNE 20:19:01 69° ESE 20:24:13 10° S
STARLINK-1233 4.2 20:16:41 10° W 20:19:39 38° NNW 20:21:02 24° NE
STARLINK-1212 4.2 20:17:10 10° W 20:20:06 37° NNW 20:21:27 24° NE
Cosmos 1328 4.4 20:16:32 10° N 20:20:16 36° ENE 20:20:25 35° E
STARLINK-1230 4.0 20:16:19 10° WSW 20:20:21 60° NNW 20:22:57 21° NE
STARLINK-1105 4.2 20:17:35 10° W 20:20:33 37° NNW 20:21:54 24° NE
SL-16 R/B 2.7 20:15:03 10° SW 20:20:38 61° WNW 20:26:16 10° NNE
STARLINK-1206 4.2 20:18:05 10° W 20:21:02 37° NNW 20:22:19 25° NE
STARLINK-1247 4.2 20:18:32 10° W 20:21:28 37° NNW 20:22:44 25° NE
Abrixas rocket 3.4 20:19:06 10° SW 20:20:46 26° SSW 20:20:46 26° SSW
STARLINK-1227 4.2 20:18:57 10° W 20:21:55 37° NNW 20:23:11 25° NE
STARLINK-1218 4.2 20:19:27 10° W 20:22:23 37° NNW 20:23:36 25° NE
STARLINK-1144 3.5 20:18:19 10° WNW 20:22:28 85° SSW 20:23:38 46° SE
Cosmos 2228 3.5 20:22:39 37° E 20:22:39 37° E 20:26:35 10° NNE
STARLINK-1226 4.2 20:19:53 10° W 20:22:50 37° NNW 20:24:03 25° NE
STARLINK-1254 4.2 20:20:19 10° W 20:23:16 37° NNW 20:24:29 26° NE
STARLINK-1215 4.2 20:20:48 10° W 20:23:45 36° NNW 20:24:54 26° NNE
STARLINK-1231 4.2 20:21:15 10° W 20:24:11 36° NNW 20:25:19 26° NNE
STARLINK-1232 4.2 20:22:10 10° W 20:25:06 36° NNW 20:26:12 26° NNE
STARLINK-1243 4.1 20:21:10 10° W 20:25:12 57° NNW 20:27:36 23° NE
STARLINK-1217 4.2 20:22:37 10° W 20:25:33 36° NNW 20:26:38 27° NNE
STARLINK-1208 4.2 20:23:02 10° W 20:25:59 36° NNW 20:27:05 27° NNE
Cosmos 1953 2.2 20:23:07 14° S 20:26:26 88° E 20:30:26 10° N
STARLINK-1229 4.3 20:23:31 10° W 20:26:26 36° NNW 20:27:30 27° NNE
STARLINK-1271 4.3 20:23:58 10° W 20:26:54 36° NNW 20:27:55 27° NNE
STARLINK-1270 4.3 20:24:27 10° W 20:27:22 35° NNW 20:28:23 27° NNE
STARLINK-1103 3.5 20:23:17 10° WNW 20:27:26 80° SSW 20:28:25 51° SE
STARLINK-1154 4.3 20:24:54 10° W 20:27:49 35° NNW 20:28:48 27° NNE
STARLINK-1197 4.3 20:25:48 10° W 20:28:44 35° NNW 20:29:41 28° NNE
STARLINK-1189 4.3 20:26:16 10° W 20:29:10 35° NNW 20:30:07 28° NNE
STARLINK-1236 4.2 20:25:59 10° W 20:30:00 55° NNW 20:32:12 24° NE
STARLINK-1187 4.4 20:27:09 10° WNW 20:30:04 34° N 20:31:00 27° NNE
STARLINK-1198 4.3 20:27:09 10° W 20:30:04 35° NNW 20:30:58 28° NNE
STARLINK-1188 4.3 20:27:10 10° W 20:30:05 35° NNW 20:30:58 28° NNE
Cosmos 1992 Rocket 3.9 20:25:29 10° NNW 20:30:44 89° ENE 20:33:07 33° SSE
STARLINK-1235 4.4 20:27:54 10° WNW 20:30:48 33° N 20:31:43 27° NNE
STARLINK-1199 4.3 20:29:07 10° W 20:32:03 35° NNW 20:32:53 29° NNE
STARLINK-1101 3.6 20:28:16 10° WNW 20:32:24 75° SSW 20:33:11 56° SE
STARLINK-1191 4.3 20:29:34 10° W 20:32:30 35° NNW 20:33:20 29° NNE
STARLINK-1210 4.3 20:30:01 10° W 20:32:57 34° NNW 20:33:46 29° NNE
STARLINK-1221 4.3 20:30:29 10° W 20:33:24 34° NNW 20:34:11 29° NNE
Nadezhda 1 Rocket 4.1 20:29:47 25° SSE 20:33:26 53° E 20:39:38 10° NNE
STARLINK-1219 4.3 20:30:56 10° W 20:33:52 34° N 20:34:39 29° NNE
STARLINK-1222 4.3 20:31:23 10° W 20:34:19 34° NNW 20:35:04 30° NNE
STARLINK-1211 4.3 20:31:51 10° W 20:34:46 34° N 20:35:30 30° NNE
STARLINK-1214 4.3 20:32:18 10° W 20:35:13 34° N 20:35:56 30° NNE
STARLINK-1245 4.3 20:32:47 10° WNW 20:35:41 34° N 20:36:20 30° NNE
ISS -3.8 20:32:23 10° WNW 20:35:39 84° W 20:35:39 84° W
STARLINK-1238 4.3 20:33:10 10° WNW 20:36:05 34° N 20:36:46 30° NNE
STARLINK-1205 4.3 20:34:06 10° WNW 20:37:00 33° N 20:37:37 30° NNE
STARLINK-1102 3.6 20:33:14 10° WNW 20:37:22 70° SSW 20:37:58 59° SSE
STARLINK-1204 4.3 20:34:35 10° WNW 20:37:29 33° N 20:38:03 30° NNE
STARLINK-1269 4.3 20:35:57 10° W 20:39:56 51° NNW 20:41:43 29° NE
Cosmos 2058 Rocket 4.3 20:42:37 28° NE 20:42:37 28° NE 20:45:21 10° NNE
MetOp-B 4.1 20:40:10 42° SE 20:41:58 70° ENE 20:47:19 10° N
STARLINK-1111 3.6 20:38:14 10° WNW 20:42:21 65° SSW 20:42:45 61° S
Cosmos 1603 3.6 20:36:49 10° SSW 20:42:23 64° ESE 20:47:57 10° NNE
Cosmos 2084 Rocket 3.8 20:38:02 10° NW 20:42:27 62° SW 20:43:30 47° S
Cosmos 2251 Rocket 3.5 20:37:58 10° SSW 20:43:20 88° ESE 20:48:45 10° NNE
SPOT 5 4.0 20:44:25 24° NE 20:44:25 24° NE 20:47:27 10° N
Meteor 1-16 Rocket 4.0 20:40:19 21° S 20:43:56 77° E 20:49:25 10° NNE
Cosmos 1703 3.2 20:39:59 10° N 20:43:49 67° ENE 20:43:49 67° ENE
STARLINK-1200 4.4 20:40:48 10° W 20:44:46 49° NNW 20:46:21 31° NE
STARLINK-1073 3.7 20:43:14 10° WNW 20:47:19 61° SW 20:47:33 60° SSW
IGS 5A 4.0 20:49:01 42° NE 20:49:01 42° NE 20:52:32 10° N
Cosmos 2074 Rocket 4.1 20:42:29 10° NNW 20:48:45 75° W 20:53:00 22° S
ERS-1 Rocket 3.6 20:48:38 37° ENE 20:48:47 37° ENE 20:53:23 10° N
STARLINK-1192 4.4 20:45:36 10° W 20:49:34 47° NNW 20:50:55 33° NE
Landsat 7 4.0 20:49:40 51° E 20:49:54 51° ENE 20:54:31 10° N
CZ-2C R/B 2.6 20:44:42 10° NNE 20:49:54 79° WNW 20:55:04 10° SSW
STARLINK-1121 3.9 20:48:12 10° WNW 20:52:16 56° SW 20:52:19 56° SSW
STARLINK-1244 4.5 20:50:34 10° W 20:54:30 46° NNW 20:55:39 36° NNE
Cosmos 292 Rocket 4.5 20:50:40 10° NNW 20:55:18 49° WSW 20:57:04 33° SSW
STARLINK-1106 4.0 20:53:11 10° WNW 20:57:04 52° SW 20:57:04 52° SW
Cosmos 1656 Rocket 3.6 20:55:25 10° NNW 21:01:08 73° ENE 21:02:04 60° ESE
MOS 1 Rocket 4.1 20:56:55 10° N 21:02:03 60° WNW 21:07:21 10° SSW
STARLINK-1112 4.2 20:58:12 10° WNW 21:01:53 47° SW 21:01:53 47° SW
Cosmos 1610 Rocket 4.4 20:56:51 10° N 21:03:08 87° W 21:05:25 42° S
Meteor 1-11 4.1 20:57:26 10° N 21:03:16 80° ENE 21:04:29 57° SSE
Aureole 1 Rocket 4.4 21:01:50 40° SSE 21:04:09 53° ESE 21:10:35 10° NNE
Cosmos 1437 4.5 21:01:34 10° NNW 21:03:36 31° WNW 21:03:36 31° WNW
STARLINK-1128 4.4 21:03:12 10° WNW 21:06:40 42° WSW 21:06:40 42° WSW
Cosmos 1726 Rocket 3.6 21:10:44 78° NW 21:10:44 78° NW 21:14:59 10° N
COSMOS 2455 3.6 21:08:42 10° NNW 21:14:19 38° NE 21:15:09 37° ENE
Cosmos 1726 3.8 21:17:22 28° WSW 21:18:21 32° WNW 21:21:46 10° N
Cosmos 1461 4.3 21:17:24 10° NNW 21:20:56 33° NNE 21:20:56 33° NNE
Cosmos 2341 Rocket 3.9 21:15:35 10° N 21:21:58 74° E 21:22:43 66° SE
Cosmos 1908 4.5 21:24:02 39° NNW 21:24:02 39° NNW 21:26:42 10° N
Cosmos 2369 Rocket 3.2 21:18:06 10° NW 21:23:22 40° WSW 21:25:03 32° SW
NOSS 3-4 (A) 3.8 21:21:49 10° NW 21:28:46 76° NE 21:30:09 60° ESE
NOSS 3-4 (C) 3.8 21:21:55 10° NW 21:28:52 75° NE 21:30:14 60° ESE
Cosmos 1953 Rocket 4.5 21:26:11 10° NNW 21:30:24 43° W 21:30:33 43° W
Terra 2.7 21:32:46 41° NNE 21:32:46 41° NNE 21:36:10 10° N
Spot 2 Rocket 4.2 21:35:52 45° WSW 21:36:29 47° W 21:41:27 10° NNW
NOSS 3-3 (A) 4.2 21:32:18 10° SW 21:38:12 68° NW 21:44:57 10° NE
NOSS 3-3 (C) 4.2 21:32:24 10° SW 21:38:18 68° NW 21:45:03 10° NE
SPOT 1/Viking Rocket 3.8 21:41:28 65° W 21:41:28 65° W 21:46:33 10° NNW
Cosmos 1943 Rocket 4.1 21:40:05 10° NW 21:44:06 21° W 21:46:08 17° SW
Cosmos 1943 3.8 21:42:18 14° SW 21:47:07 56° WNW 21:52:44 10° NNE
Cosmos 2218 Rocket 4.0 21:42:50 10° N 21:48:36 70° NE 21:48:36 70° NE
Resurs 01 Rocket 4.2 21:54:02 13° WSW 21:55:27 14° W 21:57:53 10° NW
APEX 4.4 21:49:41 10° NNW 21:56:22 76° W 21:56:22 76° W
USA 234 3.9 21:53:23 10° NE 21:59:42 53° NNW 22:06:01 10° W
Cosmos 2181 Rocket 4.0 22:00:17 77° N 22:00:17 77° N 22:06:02 10° N
ATLAS 2AS CENTAUR R/B 2.7 21:53:54 10° NW 22:01:30 73° SW 22:01:48 72° SW
Cosmos 1697 Rocket 4.4 22:06:03 10° N 22:10:12 23° NE 22:10:12 23° NE
Mayak 1.5 22:15:05 10° NNE 22:15:32 13° NNE 22:15:32 13° NNE
SL-8 Rocket 4.4 22:15:45 10° NNW 22:21:40 57° W 22:21:40 57° W
Cosmos 2366 rocket 4.4 22:23:43 10° NNW 22:29:00 57° WNW 22:29:00 57° WNW
Cosmos 1980 Rocket 4.1 22:31:41 10° N 22:35:28 20° NE 22:35:28 20° NE
CZ-4C R/B 4.2 22:30:24 10° NNW 22:36:13 30° NNE 22:38:44 25° ENE
COSMOS 2455 4.1 22:54:38 10° NW 22:58:18 35° WNW 22:58:18 35° WNW
Terra 4.3 23:11:38 16° WNW 23:11:38 16° WNW 23:13:10 10° NW
USA 234 4.4 23:36:03 10° ENE 23:42:01 39° N 23:48:00 10° WNW
Mayak 2.0 23:51:57 10° NNW 23:52:06 11° NNW 23:52:06 11° NNW
